Retour au catalogue

P/L 153 DEB

ActifLEO
NORAD 19245·DEBRIS·🇺🇸 United States

Lancé May 31, 1967 depuis Vandenberg Space Force Base

Loading…

Prochains Passages (prochaines 24 heures)

TLE

FraisSource: Space-Track

Époque: Sep 13, 2026, 22:37 UTC

1 19245U 67053K   26256.94281347  .00000417  00000-0  20999-3 0  9995
2 19245  69.9565 139.0615 0005073 338.4671  34.6670 14.23077522 42943

Suivez P/L 153 DEB en temps réel avec AllMySat

Download on the App Store